Flag Weather past 2 weeks in Hof (Saale), Bavaria, Germany

Now
52 °F

Low clouds.


Feels Like: 51 °F
Forecast: 46 / 60 °F
Wind: 3 mph from Southwest

Location: Hof

Current Time: Oct 31, 2014 at 11:52:04 AM

Latest Report: Oct 31, 2014 at 11:00 AM


Visibility: 5 mi

Pressure: 30.33 "Hg

Humidity: 88%

Dew point: 48 °F

Location of Hof (Saale)Location

Historic Weather in Hof (Saale) — Graph

°F

Hof (Saale) temperature yesterday

Maximum temperature yesterday: 50 °F (at 3:00 PM)
Minimum temperature yesterday: 37 °F (at 3:00 AM)
Average temperature yesterday: 44 °F

Past Weeks' High & Low Weather Summary

 TemperatureHumidityPressure
High65 °F (Oct 19, 4:00 PM)100% (Oct 19, 6:00 AM)30.41 "Hg (Oct 19, 6:00 AM)
Low33 °F (Oct 29, 1:00 AM)62% (Oct 24, 3:00 PM)29.50 "Hg (Oct 21, 9:00 PM)
Average47 °F91%30.12 "Hg
* Reported Oct 16 12:00 Noon — Oct 31 11:00 AM, Hof (Saale), Weather by CustomWeather, © 2014

Note: Actual official high and low records may vary slightly from our data, if they occured in-between our weather recording intervals... More about our weather records

Advertising

Hof (Saale) weather history for previous 24 hours

 ConditionsComfort  
Time TempWeatherWind HumidityBarometerVisibility
11:00 AM
Oct 31
52 °FLow clouds.3 mph88%30.33 "Hg5 mi
9:00 AM49 °FFog.2 mph96%30.34 "Hg2 mi
8:00 AM49 °FFog.3 mph98%30.32 "Hg2 mi
7:00 AM48 °FFog.3 mph98%30.30 "Hg2 mi
6:00 AM48 °FFog.2 mph98%30.31 "Hg2 mi
5:00 AM48 °FFog.3 mph98%30.31 "Hg1 mi
3:00 AM48 °FFog.2 mph97%30.31 "Hg1 mi
2:00 AM47 °FFog.2 mph96%30.33 "Hg2 mi
1:00 AM47 °FFog.2 mph96%30.33 "Hg2 mi
12:00 AM46 °FFog.1 mph95%30.34 "Hg2 mi
11:00 PM
Oct 30
46 °FFog.2 mph95%30.34 "Hg2 mi
9:00 PM47 °FFog.2 mph90%30.32 "Hg3 mi
8:00 PM47 °FFog.1 mph90%30.32 "Hg3 mi
7:00 PM47 °FFog.2 mph90%30.32 "Hg3 mi
6:00 PM47 °FFog.1 mph89%30.32 "Hg3 mi
5:00 PM47 °FFog.2 mph87%30.31 "Hg3 mi
4:00 PMN/APassing clouds.98 mphN/AN/A1 mi
3:00 PM50 °FOvercast.2 mph84%30.27 "Hg11 mi
2:00 PM49 °FLow clouds.2 mph87%30.28 "Hg11 mi
1:00 PM48 °FFog.2 mph86%30.28 "Hg4 mi
12:00 PM47 °FFog.1 mph87%30.28 "Hg3 mi
11:00 AM44 °FLow clouds.2 mph90%30.29 "Hg2 mi
Weather by CustomWeather, © 2014

See weather overviewHow to use our weather pages